When you browse on this site, cookies collect data to enhance your experience and personalize the content and advertising you see.
Visit our Privacy Policy to learn more. By continuing to use the site, you agree to this use of cookies and data.
  • In United Kingdom
  • List of Countries
  • For 7 days
  • Water Temperature
  • Satellite Maps
  • Weather Map
  • Weather Widgets
  • user-avatar
    Login

    Hourly Weather Asunción

    Today, 20 February, Wednesday

    Time Temperature Precipitation Wind Pressure Humidity
    00:00 +28°C° 0 mm 1 mps 750 mmHg 58%
    01:00 +28°C° 0 mm 1 mps 750 mmHg 60%
    02:00 +27°C° 0 mm 1 mps 750 mmHg 62%
    03:00 +27°C° 0 mm 1 mps 750 mmHg 64%
    04:00 +27°C° 0 mm 1 mps 750 mmHg 65%
    05:00 +26°C° 0 mm 1 mps 750 mmHg 66%
    06:00 +28°C° 0 mm 1 mps 750 mmHg 62%
    07:00 +30°C° 0 mm 2 mps 751 mmHg 57%
    08:00 +31°C° 0 mm 2 mps 751 mmHg 53%
    09:00 +35°C° 0 mm 2 mps 751 mmHg 46%
    10:00 +36°C° 0 mm 1 mps 751 mmHg 40%
    11:00 +40°C° 0 mm 1 mps 751 mmHg 33%
    12:00 +41°C° 0 mm 1 mps 750 mmHg 30%
    13:00 +42°C° 0 mm 1 mps 749 mmHg 27%
    14:00 +43°C° 0 mm 1 mps 748 mmHg 24%
    15:00 +42°C° 0 mm 1 mps 748 mmHg 25%
    16:00 +41°C° 0 mm 2 mps 747 mmHg 27%
    17:00 +40°C° 0 mm 2 mps 747 mmHg 28%
    18:00 +38°C° 0 mm 2 mps 747 mmHg 32%
    19:00 +36°C° 0 mm 2 mps 748 mmHg 37%
    20:00 +32°C° 0 mm 2 mps 748 mmHg 42%
    21:00 +32°C° 0 mm 2 mps 749 mmHg 43%
    22:00 +31°C° 0 mm 2 mps 749 mmHg 45%
    23:00 +30°C° 0 mm 2 mps 750 mmHg 46%

    Tomorrow, 21 February, Thursday

    Time Temperature Precipitation Wind Pressure Humidity
    00:00 +30°C° 0 mm 2 mps 750 mmHg 48%
    01:00 +29°C° 0 mm 2 mps 750 mmHg 50%
    02:00 +29°C° 0 mm 2 mps 749 mmHg 52%
    03:00 +28°C° 0 mm 2 mps 750 mmHg 54%
    04:00 +28°C° 0 mm 2 mps 750 mmHg 56%
    05:00 +27°C° 0 mm 2 mps 750 mmHg 59%
    06:00 +29°C° 0 mm 2 mps 750 mmHg 56%
    07:00 +30°C° 0 mm 2 mps 751 mmHg 53%
    08:00 +32°C° 0 mm 2 mps 751 mmHg 50%
    09:00 +36°C° 0 mm 2 mps 751 mmHg 43%
    10:00 +38°C° 0 mm 2 mps 751 mmHg 36%
    11:00 +41°C° 0 mm 2 mps 751 mmHg 29%
    12:00 +42°C° 0 mm 2 mps 750 mmHg 27%
    13:00 +44°C° 0 mm 1 mps 750 mmHg 24%
    14:00 +45°C° 0 mm 1 mps 749 mmHg 22%
    15:00 +44°C° 0 mm 1 mps 748 mmHg 22%
    16:00 +43°C° 0 mm 2 mps 748 mmHg 23%
    17:00 +42°C° 0 mm 2 mps 747 mmHg 24%
    18:00 +40°C° 0 mm 2 mps 748 mmHg 28%
    19:00 +37°C° 0 mm 2 mps 748 mmHg 32%
    20:00 +35°C° 0 mm 2 mps 749 mmHg 37%
    21:00 +35°C° 0 mm 2 mps 749 mmHg 38%
    22:00 +34°C° 0 mm 2 mps 750 mmHg 39%
    23:00 +34°C° 0 mm 2 mps 750 mmHg 40%

    Day after tomorrow, 22 February, Friday

    Time Temperature Precipitation Wind Pressure Humidity
    00:00 +32°C° 0 mm 2 mps 750 mmHg 43%
    01:00 +32°C° 0 mm 2 mps 750 mmHg 45%
    02:00 +31°C° 0 mm 3 mps 750 mmHg 47%
    03:00 +31°C° 0 mm 3 mps 750 mmHg 50%
    04:00 +30°C° 0 mm 2 mps 750 mmHg 52%
    05:00 +30°C° 0 mm 2 mps 750 mmHg 55%
    06:00 +31°C° 0 mm 3 mps 750 mmHg 52%
    07:00 +33°C° 0 mm 3 mps 751 mmHg 50%
    08:00 +35°C° 0 mm 3 mps 752 mmHg 48%
    09:00 +37°C° 0 mm 3 mps 751 mmHg 41%
    10:00 +40°C° 0 mm 3 mps 751 mmHg 35%
    11:00 +42°C° 0 mm 2 mps 751 mmHg 29%
    12:00 +42°C° 0 mm 2 mps 750 mmHg 28%
    13:00 +42°C° 0 mm 2 mps 750 mmHg 27%
    14:00 +42°C° 0 mm 2 mps 749 mmHg 26%
    15:00 +42°C° 0 mm 2 mps 748 mmHg 26%
    16:00 +42°C° 0 mm 2 mps 748 mmHg 26%
    17:00 +42°C° 0 mm 2 mps 748 mmHg 26%
    18:00 +40°C° 0 mm 2 mps 748 mmHg 29%
    19:00 +37°C° 0 mm 2 mps 749 mmHg 33%
    20:00 +35°C° 0 mm 2 mps 749 mmHg 37%
    21:00 +34°C° 0 mm 2 mps 749 mmHg 39%
    22:00 +34°C° 0 mm 2 mps 750 mmHg 40%
    23:00 +32°C° 0 mm 2 mps 750 mmHg 42%

    23 February, Saturday

    Time Temperature Precipitation Wind Pressure Humidity
    00:00 +32°C° 0 mm 2 mps 749 mmHg 44%
    01:00 +31°C° 0 mm 2 mps 749 mmHg 47%
    02:00 +31°C° 0 mm 3 mps 748 mmHg 50%
    03:00 +30°C° 0 mm 2 mps 748 mmHg 53%
    04:00 +29°C° 0 mm 2 mps 749 mmHg 56%
    05:00 +29°C° 0 mm 2 mps 749 mmHg 59%
    06:00 +31°C° 0 mm 3 mps 749 mmHg 55%
    07:00 +33°C° 0 mm 3 mps 750 mmHg 52%
    08:00 +35°C° 0 mm 4 mps 750 mmHg 49%
    09:00 +37°C° 0 mm 4 mps 750 mmHg 43%
    10:00 +40°C° 0 mm 4 mps 749 mmHg 37%
    11:00 +42°C° 0 mm 4 mps 749 mmHg 31%
    12:00 +43°C° 0 mm 4 mps 748 mmHg 29%
    13:00 +44°C° 0 mm 4 mps 747 mmHg 27%
    14:00 +45°C° 0 mm 3 mps 746 mmHg 25%
    15:00 +44°C° 0 mm 4 mps 745 mmHg 27%
    16:00 +44°C° 0 mm 4 mps 745 mmHg 28%
    17:00 +43°C° 0 mm 4 mps 744 mmHg 30%
    18:00 +41°C° 0 mm 4 mps 745 mmHg 33%
    19:00 +38°C° 0 mm 3 mps 745 mmHg 37%
    20:00 +36°C° 0 mm 3 mps 745 mmHg 41%
    21:00 +36°C° 0 mm 3 mps 746 mmHg 42%
    22:00 +35°C° 0 mm 3 mps 746 mmHg 43%
    23:00 +35°C° 0 mm 3 mps 746 mmHg 44%

    24 February, Sunday

    Time Temperature Precipitation Wind Pressure Humidity
    00:00 +34°C° 0 mm 3 mps 746 mmHg 45%
    01:00 +34°C° 0 mm 3 mps 746 mmHg 46%
    02:00 +33°C° 0 mm 3 mps 745 mmHg 47%
    03:00 +33°C° 0 mm 3 mps 746 mmHg 49%
    04:00 +33°C° 0 mm 3 mps 746 mmHg 50%
    05:00 +33°C° 0 mm 4 mps 746 mmHg 51%
    06:00 +34°C° 0 mm 4 mps 746 mmHg 49%
    07:00 +35°C° 0 mm 5 mps 747 mmHg 48%
    08:00 +36°C° 0 mm 5 mps 747 mmHg 46%
    09:00 +39°C° 0 mm 5 mps 747 mmHg 42%
    10:00 +41°C° 0 mm 5 mps 747 mmHg 37%
    11:00 +43°C° 0 mm 5 mps 746 mmHg 33%
    12:00 +45°C° 0 mm 5 mps 746 mmHg 30%
    13:00 +44°C° 0 mm 4 mps 745 mmHg 28%
    14:00 +45°C° 0 mm 4 mps 744 mmHg 26%
    15:00 +45°C° 0 mm 3 mps 744 mmHg 26%
    16:00 +45°C° 0 mm 3 mps 743 mmHg 26%
    17:00 +43°C° 0 mm 2 mps 743 mmHg 26%
    18:00 +42°C° 0 mm 2 mps 743 mmHg 29%
    19:00 +40°C° 0 mm 2 mps 744 mmHg 32%
    20:00 +38°C° 0 mm 2 mps 744 mmHg 35%
    21:00 +38°C° 0 mm 3 mps 744 mmHg 34%
    22:00 +38°C° 0 mm 3 mps 744 mmHg 34%
    23:00 +38°C° 0 mm 3 mps 744 mmHg 34%

    25 February, Monday

    Time Temperature Precipitation Wind Pressure Humidity
    00:00 +38°C° 0 mm 4 mps 744 mmHg 35%
    01:00 +39°C° 0 mm 5 mps 744 mmHg 37%
    02:00 +37°C° 0 mm 5 mps 744 mmHg 38%
    03:00 +36°C° 0 mm 5 mps 744 mmHg 40%
    04:00 +36°C° 0 mm 4 mps 745 mmHg 42%
    05:00 +35°C° 0 mm 4 mps 745 mmHg 44%
    06:00 +35°C° 0 mm 4 mps 745 mmHg 45%
    07:00 +36°C° 0 mm 5 mps 746 mmHg 45%
    08:00 +36°C° 0 mm 5 mps 746 mmHg 45%
    09:00 +37°C° 0 mm 5 mps 747 mmHg 43%
    10:00 +38°C° 0 mm 4 mps 747 mmHg 41%
    11:00 +40°C° 0 mm 4 mps 747 mmHg 38%
    12:00 +40°C° 0 mm 4 mps 747 mmHg 40%
    13:00 +38°C° 0 mm 4 mps 746 mmHg 43%
    14:00 +38°C° 0 mm 4 mps 746 mmHg 45%
    15:00 +35°C° 0.1 mm 4 mps 746 mmHg 54%
    16:00 +33°C° 0.1 mm 4 mps 746 mmHg 64%
    17:00 +30°C° 0.1 mm 5 mps 746 mmHg 74%
    18:00 +28°C° 0.9 mm 5 mps 747 mmHg 79%
    19:00 +27°C° 0.9 mm 5 mps 748 mmHg 84%
    20:00 +25°C° 0.9 mm 5 mps 749 mmHg 90%
    21:00 +25°C° 0.7 mm 5 mps 750 mmHg 88%
    22:00 +23°C° 0.7 mm 6 mps 751 mmHg 87%
    23:00 +23°C° 0.7 mm 6 mps 751 mmHg 85%
    Show more